Location: Champaign/Urbana Astronomical Society Observatory
(40.0333°N, 88.2833°W)
Time: 05:34:57
(UTC-05:00)

Tiangong 2 - Visible Passes

Search period start: 26 March 2019 00:00
Search period end: 05 April 2019 00:00
Orbit: 380 x 389 km, 42.8° (Epoch: 26 March)

Date Brightness Start Highest point End Pass type
(mag) Time Alt. Az. Time Alt. Az. Time Alt. Az.
29 Mar 2.6 20:18:09 10° SSW 20:20:29 19° SSE 20:20:30 19° SSE visible
30 Mar 1.8 20:54:22 10° WSW 20:56:42 42° SSW 20:56:42 42° SSW visible
31 Mar 1.9 19:55:07 10° SW 19:57:59 33° SSE 20:00:27 13° E visible
31 Mar 3.6 21:31:31 10° W 21:32:41 21° W 21:32:41 21° W visible
01 Apr 0.9 20:31:54 10° WSW 20:35:03 89° N 20:36:17 34° ENE visible
02 Apr 1.9 21:09:14 10° W 21:11:58 48° NNW 21:11:58 48° NNW visible
03 Apr 1.4 20:09:33 10° W 20:12:40 64° NNW 20:15:19 13° ENE visible
03 Apr 3.9 21:46:34 10° WNW 21:47:33 18° WNW 21:47:33 18° WNW visible
04 Apr 1.8 20:46:55 10° WNW 20:49:58 48° N 20:50:49 36° NE visible
